Location: Aufkirchen
(47.9603°N, 11.3653°E)
Time: 11:42:42
(UTC+01:00)

deb Explorer IX - Pass Details

Date: 02 December 2020
Orbit: 536 x 1104 km, 38.8° (Epoch: 19 January)

Event Time Altitude Azimuth Distance (km) Brightness Sun altitude
Rises 18:05:14 0° 258° (WSW) 3,569 ? -16.4°
Reaches altitude 10° 18:08:16 10° 249° (WSW) 2,525 ? -16.9°
Maximum altitude 18:13:24 31° 189° (S) 1,357 ? -17.7°
Enters shadow 18:17:03 14° 134° (SE) 1,930 ? -18.3°
